This demonstration page uses our WeatherBlox Daily Observations layout. Learn more.

Left ArrowRight Arrow

Hourly Observations for July 12, 2022

Temp ( °F °C ) Dew Point ( °F °C ) Humidity (%) Winds ( mph kmh ) Pressure ( in mb ) Visibility ( mi km ) Precip ( " mm )
12:59 am 00:59 Mostly Clear 73 22.8 66 18.9 79 79 SSW 5 7 29.93 1014 10 16 0.00 0.00
1:59 am 01:59 Clear 72 22.2 67 19.4 84 84 S 3 6 29.92 1013 10 16 0.00 0.00
2:59 am 02:59 Clear 70 21.1 67 19.4 90 90 SSW 5 7 29.92 1013 10 16 0.00 0.00
3:59 am 03:59 Clear 70 21.1 67 19.4 90 90 SSW 3 6 29.93 1014 10 16 0.00 0.00
4:59 am 04:59 Clear 68 20 65 18.3 90 90 SSW 5 7 29.93 1013 10 16 0.00 0.00
5:59 am 05:59 Sunny 68 20 67 19.4 96 96 VRB 7 11 29.92 1013 8 13 0.00 0.00
6:59 am 06:59 Mostly Sunny 70 21.1 69 20.6 97 97 SSW 6 9 29.93 1013 9 14 0.00 0.00
7:59 am 07:59 Mostly Sunny 73 22.8 70 21.1 90 90 SSW 10 17 29.93 1013 10 16 0.00 0.00
8:59 am 08:59 Mostly Sunny 79 26.1 70 21.1 74 74 SSW 14 22 29.93 1013 10 16 0.00 0.00
9:59 am 09:59 Mostly Sunny 83 28.3 70 21.1 65 65 SW 14 22 29.91 1013 10 16 0.00 0.00
10:59 am 10:59 Mostly Sunny 86 30 70 21.1 59 59 SW 13 20 29.91 1013 10 16 0.00 0.00
11:59 am 11:59 Partly Cloudy 88 31.1 69 20.6 54 54 SSW 10 17 29.90 1012 10 16 0.00 0.00
12:59 pm 12:59 Mostly Cloudy 88 31.1 70 21.1 55 55 SSW 10 17 29.89 1012 10 16 0.00 0.00
1:59 pm 13:59 Mostly Cloudy 91 32.8 70 21.1 50 50 SW 10 17 29.88 1012 10 16 0.00 0.00
2:59 pm 14:59 Mostly Sunny 91 32.8 70 21.1 50 50 SW 8 13 29.86 1011 10 16 0.00 0.00
3:59 pm 15:59 Mostly Cloudy 91 32.8 70 21.1 50 50 SW 10 17 29.84 1011 10 16 0.00 0.00
4:59 pm 16:59 Mostly Cloudy 91 32.8 70 21.1 50 50 SW 6 9 29.83 1010 10 16 0.00 0.00
5:59 pm 17:59 Partly Cloudy 91 32.8 70 21.1 50 50 SW 15 24 29.82 1010 10 16 0.00 0.00
6:59 pm 18:59 Partly Cloudy 91 32.8 70 21.1 50 50 SW 12 19 29.83 1010 10 16 0.00 0.00
7:59 pm 19:59 Partly Cloudy 91 32.8 70 21.1 50 50 SW 8 13 29.84 1011 10 16 0.00 0.00
8:59 pm 20:59 Partly Cloudy 86 30 70 21.1 59 59 SW 3 6 29.86 1011 10 16 0.00 0.00
9:59 pm 21:59 Partly Cloudy 84 28.9 71 21.7 65 65 S 5 7 29.89 1012 10 16 0.00 0.00
10:59 pm 22:59 Partly Cloudy 82 27.8 72 22.2 72 72 SSW 7 11 29.88 1012 10 16 0.00 0.00
11:59 pm 23:59 Partly Cloudy 81 27.2 71 21.7 72 72 SW 7 11 29.91 1013 10 16 0.00 0.00

Powered by AerisWeather